Waseca, MN

11:45 AM CDT on August 21, 2017 (GMT -0500)
Waseca Municipal

Weather History for KACQ - January, 2012

Change the Weather History Date:

Monday, January 30, 2012

  Actual Average Record
Temperature  
Mean Temperature 32 °F -  
Max Temperature 42 °F 20 °F 49 °F (1931)
Min Temperature 23 °F 3 °F -33 °F (1951)
Degree Days  
Heating Degree Days 32    
Moisture  
Dew Point 25 °F    
Average Humidity 70    
Maximum Humidity 87    
Minimum Humidity 61    
Precipitation  
Precipitation 0.00 in - - ()
Sea Level Pressure  
Sea Level Pressure 29.72 in    
Wind  
Wind Speed 11 mph (SSE)    
Max Wind Speed 17 mph    
Max Gust Speed 30 mph    
Visibility 10 miles    
Events      
Averages and records for this station are not official NWS values.
T = Trace of Precipitation, MM = Missing Value Source: NWS Daily Summary

Daily Weather History Graph

Daily Weather History Graph

Search for Another Location

Airport or City:

Trip Planner

Search our weather history database for the weather conditions in past years. The results will help you decide how hot, cold, wet, or windy it might be!

Date:

Astronomy

Jan. 30, 2012 Rise Set
Actual Time 7:34 AM CST 5:21 PM CST
Civil Twilight 7:03 AM CST 5:51 PM CST
Nautical Twilight 6:28 AM CST 6:26 PM CST
Astronomical Twilight 5:54 AM CST 7:00 PM CST
Moon 10:39 AM CST (1/30) 12:23 AM CST (1/30)
Length of Visible Light 10h 48m
Length of Day
9h 46m
Waxing Crescent, 46% of the Moon is Illuminated
Jan 30
Waxing Crescent
Jan 30
First Quarter
Feb 7
Full
Feb 14
Last Quarter
Feb 21
New

Hourly Weather History & Observations

Time (CST) Temp. Windchill Dew Point Humidity Pressure Visibility Wind Dir Wind Speed Gust Speed Precip Events Conditions
12:18 AM 23.0 °F 9.2 °F 15.8 °F 74% 29.91 in 10.0 mi SE 17.3 mph - N/A   Overcast
12:38 AM 24.8 °F 11.5 °F 17.6 °F 74% 29.89 in 10.0 mi SE 17.3 mph 23.0 mph N/A   Overcast
12:58 AM 24.8 °F 11.5 °F 17.6 °F 74% 29.86 in 10.0 mi SE 17.3 mph - N/A   Overcast
1:18 AM 26.6 °F 14.3 °F 17.6 °F 69% 29.85 in 10.0 mi SE 16.1 mph 29.9 mph N/A   Mostly Cloudy
1:38 AM 26.6 °F 14.3 °F 17.6 °F 69% 29.84 in 10.0 mi SE 16.1 mph 19.6 mph N/A   Scattered Clouds
1:58 AM 26.6 °F 13.8 °F 17.6 °F 69% 29.83 in 10.0 mi SE 17.3 mph - N/A   Mostly Cloudy
2:18 AM 26.6 °F 13.8 °F 17.6 °F 69% 29.82 in 10.0 mi SE 17.3 mph 21.9 mph N/A   Overcast
2:38 AM 28.4 °F 17.5 °F 19.4 °F 69% 29.81 in 10.0 mi SSE 13.8 mph - N/A   Overcast
2:58 AM 28.4 °F 18.0 °F 19.4 °F 69% 29.79 in 10.0 mi SE 12.7 mph - N/A   Scattered Clouds
3:18 AM 28.4 °F 18.5 °F 19.4 °F 69% 29.78 in 10.0 mi SSE 11.5 mph - N/A   Mostly Cloudy
3:38 AM 30.2 °F 21.9 °F 21.2 °F 69% 29.78 in 10.0 mi SSE 9.2 mph - N/A   Overcast
3:58 AM 30.2 °F 21.9 °F 21.2 °F 69% 29.76 in 10.0 mi SSE 9.2 mph - N/A   Scattered Clouds
4:18 AM 28.4 °F 21.2 °F 19.4 °F 69% 29.77 in 10.0 mi SE 6.9 mph - N/A   Clear
4:38 AM 26.6 °F 18.2 °F 19.4 °F 74% 29.76 in 10.0 mi SE 8.1 mph - N/A   Clear
4:57 AM 28.4 °F 20.4 °F 19.4 °F 69% 29.74 in 10.0 mi SSE 8.1 mph - N/A   Clear
5:18 AM 28.4 °F 20.4 °F 19.4 °F 69% 29.74 in 10.0 mi SE 8.1 mph - N/A   Scattered Clouds
5:38 AM 32.0 °F 23.0 °F 23.0 °F 69% 29.73 in 10.0 mi SSE 11.5 mph - N/A   Overcast
6:18 AM 32.0 °F 24.2 °F 21.2 °F 64% 29.71 in 10.0 mi SSE 9.2 mph - N/A   Scattered Clouds
6:38 AM 30.2 °F 21.9 °F 21.2 °F 69% 29.70 in 10.0 mi SSE 9.2 mph - N/A   Scattered Clouds
6:58 AM 30.2 °F 21.9 °F 21.2 °F 69% 29.71 in 10.0 mi SSE 9.2 mph - N/A   Clear
7:17 AM 30.2 °F 23.4 °F 21.2 °F 69% 29.72 in 10.0 mi South 6.9 mph - N/A   Scattered Clouds
7:38 AM 30.2 °F 24.3 °F 21.2 °F 69% 29.71 in 10.0 mi SSE 5.8 mph - N/A   Scattered Clouds
7:58 AM 30.2 °F 23.4 °F 21.2 °F 69% 29.71 in 10.0 mi SE 6.9 mph - N/A   Clear
8:18 AM 30.2 °F 26.7 °F 19.4 °F 64% 29.72 in 10.0 mi SSE 3.5 mph - N/A   Clear
8:38 AM 32.0 °F 24.8 °F 23.0 °F 69% 29.71 in 10.0 mi South 8.1 mph - N/A   Clear
8:58 AM 32.0 °F 26.4 °F 23.0 °F 69% 29.71 in 10.0 mi South 5.8 mph - N/A   Clear
9:17 AM 33.8 °F 27.0 °F 23.0 °F 65% 29.71 in 10.0 mi South 8.1 mph - N/A   Clear
9:38 AM 33.8 °F 26.4 °F 23.0 °F 65% 29.70 in 10.0 mi South 9.2 mph - N/A   Clear
9:58 AM 35.6 °F 28.0 °F 26.6 °F 70% 29.71 in 10.0 mi South 10.4 mph - N/A   Clear
10:18 AM 35.6 °F 27.5 °F 26.6 °F 70% 29.70 in 10.0 mi South 11.5 mph - N/A   Clear
10:38 AM 37.4 °F 30.8 °F 26.6 °F 65% 29.70 in 10.0 mi South 9.2 mph - N/A   Clear
10:58 AM 37.4 °F 30.8 °F 26.6 °F 65% 29.70 in 10.0 mi South 9.2 mph - N/A   Clear
11:18 AM 39.2 °F 33.0 °F 28.4 °F 65% 29.70 in 10.0 mi South 9.2 mph - N/A   Clear
11:38 AM 39.2 °F 33.0 °F 28.4 °F 65% 29.70 in 10.0 mi South 9.2 mph - N/A   Clear
11:57 AM 39.2 °F 32.5 °F 28.4 °F 65% 29.70 in 10.0 mi SSW 10.4 mph - N/A   Clear
12:18 PM 42.8 °F 37.5 °F 30.2 °F 61% 29.69 in 10.0 mi SSW 9.2 mph - N/A   Clear
12:38 PM 42.8 °F 37.5 °F 30.2 °F 61% 29.69 in 10.0 mi SSW 9.2 mph - N/A   Clear
12:58 PM 42.8 °F 37.0 °F 30.2 °F 61% 29.68 in 10.0 mi SSW 10.4 mph - N/A   Clear
1:18 PM 42.8 °F 38.0 °F 30.2 °F 61% 29.68 in 10.0 mi SSW 8.1 mph - N/A   Clear
1:38 PM 42.8 °F 37.5 °F 30.2 °F 61% 29.68 in 10.0 mi SSW 9.2 mph - N/A   Scattered Clouds
2:18 PM 42.8 °F 38.0 °F 30.2 °F 61% 29.68 in 10.0 mi SSW 8.1 mph - N/A   Clear
2:38 PM 42.8 °F 38.6 °F 32.0 °F 66% 29.67 in 10.0 mi South 6.9 mph - N/A   Clear
2:58 PM 42.8 °F 39.3 °F 32.0 °F 66% 29.67 in 10.0 mi South 5.8 mph - N/A   Clear
3:18 PM 42.8 °F 38.6 °F 32.0 °F 66% 29.67 in 10.0 mi South 6.9 mph - N/A   Clear
3:38 PM 41.0 °F 36.4 °F 32.0 °F 70% 29.67 in 10.0 mi South 6.9 mph - N/A   Clear
3:58 PM 39.2 °F 34.2 °F 32.0 °F 75% 29.67 in 10.0 mi South 6.9 mph - N/A   Clear
4:17 PM 39.2 °F 35.0 °F 32.0 °F 75% 29.67 in 10.0 mi South 5.8 mph - N/A   Clear
4:38 PM 41.0 °F 37.1 °F 32.0 °F 70% 29.67 in 10.0 mi South 5.8 mph - N/A   Clear
4:58 PM 39.2 °F 37.0 °F 32.0 °F 75% 29.67 in 10.0 mi South 3.5 mph - N/A   Clear
5:18 PM 39.2 °F 35.0 °F 32.0 °F 75% 29.68 in 10.0 mi South 5.8 mph - N/A   Clear
5:38 PM 39.2 °F 35.0 °F 32.0 °F 75% 29.67 in 10.0 mi SSE 5.8 mph - N/A   Clear
5:58 PM 35.6 °F 29.2 °F 30.2 °F 81% 29.67 in 10.0 mi South 8.1 mph - N/A   Clear
6:38 PM 35.6 °F 31.7 °F 32.0 °F 87% 29.69 in 10.0 mi South 4.6 mph - N/A   Clear
6:58 PM 35.6 °F 32.8 °F 30.2 °F 81% 29.69 in 10.0 mi South 3.5 mph - N/A   Clear
7:18 PM 35.6 °F 32.8 °F 30.2 °F 81% 29.68 in 10.0 mi South 3.5 mph - N/A   Clear
7:38 PM 37.4 °F 33.8 °F 30.2 °F 75% 29.68 in 10.0 mi South 4.6 mph - N/A   Clear
7:58 PM 37.4 °F 33.8 °F 30.2 °F 75% 29.69 in 10.0 mi South 4.6 mph - N/A   Clear
8:18 PM 37.4 °F 33.8 °F 30.2 °F 75% 29.69 in 10.0 mi South 4.6 mph - N/A   Clear
8:38 PM 35.6 °F - 30.2 °F 81% 29.69 in 10.0 mi Calm Calm - N/A   Clear
8:58 PM 33.8 °F 28.6 °F 28.4 °F 81% 29.69 in 10.0 mi SE 5.8 mph - N/A   Clear
9:18 PM 35.6 °F 30.7 °F 32.0 °F 87% 29.68 in 10.0 mi ESE 5.8 mph - N/A   Clear
9:38 PM 33.8 °F 27.0 °F 30.2 °F 87% 29.67 in 10.0 mi ESE 8.1 mph - N/A   Clear
9:58 PM 35.6 °F 29.9 °F 30.2 °F 81% 29.67 in 10.0 mi ESE 6.9 mph - N/A   Clear
10:17 PM 35.6 °F 29.9 °F 30.2 °F 81% 29.67 in 10.0 mi SE 6.9 mph - N/A   Clear
10:58 PM 35.6 °F 29.9 °F 30.2 °F 81% 29.65 in 10.0 mi ESE 6.9 mph - N/A   Clear
11:18 PM 33.8 °F 27.7 °F 28.4 °F 81% 29.64 in 10.0 mi SE 6.9 mph - N/A   Clear
11:38 PM 33.8 °F 27.7 °F 28.4 °F 81% 29.63 in 10.0 mi ESE 6.9 mph - N/A   Clear
11:58 PM 33.8 °F 27.0 °F 28.4 °F 81% 29.62 in 10.0 mi ESE 8.1 mph - N/A   Clear